Location: Paddlesworth
(51.1000°N, 1.1333°E)
Time: 06:38:14
(UTC+00:00)

Cosmos 1125 Rocket - Pass Details

Date: 11 May 2021
Orbit: 758 x 779 km, 74.0° (Epoch: 20 June)

Event Time Altitude Azimuth Distance (km) Brightness Sun altitude
Exits shadow 23:26:53 32° 127° (SE) 1,297 4.3 -20.5°
Maximum altitude 23:27:55 35° 103° (ESE) 1,225 4.4 -20.6°
Drops below altitude 10° 23:32:36 10° 39° (NE) 2,303 6.6 -20.6°
Sets 23:35:08 0° 31° (NNE) 3,232 7.6 -20.7°
